Regional Weather Roundup
Issued by NWS

Home | Current Version | Previous Version | Text Only | Print | Product List | Glossary On
Versions: 1 2 3 4 5 6 7 8 9 10 11 12 13 14 15 16 17 18 19 20 21 22 23 24 25 26 27 28 29 30 31 32 33 34 35 36 37 38 39 40 41 42 43 44 45 46 47 48 49 50
000
ASUS46 KSTO 201415
RWRCA

NORTHERN AND CENTRAL CA REGIONAL WEATHER ROUNDUP
NATIONAL WEATHER SERVICE SACRAMENTO CA
700 AM PDT MON MAY 20 2019

NOTE: FAIR INDICATES FEW OR NO CLOUDS BELOW 12,000 FEET WITH NO
SIGNIFICANT WEATHER AND/OR OBSTRUCTIONS TO VISIBILITY.

CAZ001-003-201500-
NORTHWEST AREA

CITY           SKY/WX    TMP DP  RH WIND       PRES   REMARKS
CRESCENT CITY  SUNNY     46  44  93 E5        29.94S
UKIAH          CLOUDY    48  46  93 CALM      29.95R
$$

CAZ006-505>513-201500-
BAY AREA

CITY           SKY/WX    TMP DP  RH WIND       PRES   REMARKS
SANTA ROSA     CLOUDY    47  47 100 NW5       29.96R
SAN RAFAEL     N/A      MM  MM  MM MISG
NAPA           FOG       45  44  97 N5        29.96R VSB 1/4
CONCORD        CLOUDY    51  46  83 CALM      29.95R
OAKLAND CITY   N/A       49  MM  MM MISG
OAKLAND        MOSUNNY   50  46  86 CALM      29.96R
SAN FRAN CITY  N/A       52  MM  93 MISG
SAN FRAN ARPT  MOSUNNY   50  47  89 NW6       29.95R
LIVERMORE      CLOUDY    50  49  96 CALM      29.94R
HAYWARD        PTSUNNY   50  46  86 NE3       29.95R
REDWOOD CITY   N/A       49  MM  94 MISG
MOFFETT ARPT   CLOUDY    51  48  89 CALM      29.96R
SAN JOSE ARPT  PTSUNNY   50  49  96 CALM      29.95R
$$
CAZ034-037-514>518-201500-
CENTRAL COAST

CITY           SKY/WX    TMP DP  RH WIND       PRES   REMARKS
WATSONVILLE    CLOUDY    48  46  93 N3        29.95R
SALINAS        SUNNY     50  47  89 CALM      29.94R
MONTEREY       SUNNY     50  47  89 E3        29.94R
SAN LUIS OBISP FOG       49  49 100 E5        29.93S VSB 1
SANTA MARIA    FOG       52  52 100 CALM      29.94R VSB 1/4
$$
CAZ015-016-201500-
NORTHERN SACRAMENTO VALLEY

CITY           SKY/WX    TMP DP  RH WIND       PRES   REMARKS
REDDING        CLOUDY    52  46  80 SW5       29.93R
RED BLUFF      CLOUDY    51  45  79 SW3       29.95R
OROVILLE       SUNNY     49  45  86 CALM      29.95R
$$
CAZ016>018-201500-
SOUTHERN SACRAMENTO VALLEY

CITY           SKY/WX    TMP DP  RH WIND       PRES   REMARKS
AUBURN         SUNNY     45  39  81 CALM      29.92R
BEALE AFB      SUNNY     47  44  89 CALM      29.93
LINCOLN        FAIR      43  43 100 CALM      29.93R
MARYSVILLE     SUNNY     47  46  97 CALM      29.95R
SAC INTL ARPT  FOG       45  45 100 CALM      29.94R VSB 1/4
MATHER AIRPORT SUNNY     45  45 100 CALM      29.93R
DOWNTOWN SAC   N/A       50  MM  MM MISG
SAC EXEC ARPT  SUNNY     46  46 100 CALM      29.95R
VACAVILLE      SUNNY     47  47 100 CALM      29.96R
TRAVIS AFB     SUNNY     47  45  91 CALM      29.96R
$$
CAZ019>021-201500-
SAN JOAQUIN VALLEY

CITY           SKY/WX    TMP DP  RH WIND       PRES   REMARKS
STOCKTON       FOG       49  48  97 NW5       29.94R VSB 1/4
MODESTO        FOG       49  48  97 NW6       29.94R VSB 1/4
MERCED         MOSUNNY   50  48  93 N3        29.92R
LEMOORE        SUNNY     48  47  96 CALM      29.94R
FRESNO         MOSUNNY   50  46  86 N3        29.93R
HANFORD        PTSUNNY   50  48  93 CALM      29.94R
PORTERVILLE    MOSUNNY   50  49  96 CALM      29.94R
BAKERSFIELD    CLOUDY    53  49  86 NW7       29.92R
$$
CAZ011-012-071-201500-
NORTHERN MOUNTAINS

CITY           SKY/WX    TMP DP  RH WIND       PRES   REMARKS
YREKA          PTSUNNY   44  39  82 CALM      29.88R
MOUNT SHASTA   CLOUDY    41  39  93 CALM      29.87R
ALTURAS        CLOUDY    40  37  89 W8        29.83R WCI  34
$$
CAZ011-012-071-201500-
SIERRA NEVADA MTNS

CITY           SKY/WX    TMP DP  RH WIND       PRES   REMARKS
TRUCKEE        MOSUNNY   27  25  93 CALM      29.88S
TAHOE VLY ARPT SUNNY     27  24  89 S6        29.86S WCI  20
MAMMOTH LAKES  FAIR      29  16  58 W5        29.84S WCI  24
$$



USA.gov is the U.S. government's official web portal to all federal, state and local government web resources and services.